• In Romania
  • List of Countries
  • For 7 days
  • Water Temperature
  • Satellite Maps
  • Weather Map
  • Weather Widgets
  • user-avatar
    Login

    Hourly Weather Primorsko

    Today, 15 December, Friday

    Time Temperature Precipitation Wind Pressure Humidity
    00:00 +10°C° 0 mm 2 mps 758 mmHg 91%
    01:00 +10°C° 0 mm 3 mps 758 mmHg 92%
    02:00 +10°C° 0 mm 3 mps 758 mmHg 93%
    03:00 +10°C° 0 mm 3 mps 758 mmHg 93%
    04:00 +9°C° 0 mm 3 mps 758 mmHg 93%
    05:00 +9°C° 0 mm 3 mps 758 mmHg 93%
    06:00 +9°C° 0 mm 3 mps 758 mmHg 92%
    07:00 +9°C° 0 mm 3 mps 759 mmHg 92%
    08:00 +9°C° 0 mm 3 mps 759 mmHg 92%
    09:00 +10°C° 0 mm 3 mps 759 mmHg 83%
    10:00 +12°C° 0 mm 3 mps 759 mmHg 74%
    11:00 +14°C° 0 mm 3 mps 760 mmHg 65%
    12:00 +16°C° 0 mm 3 mps 759 mmHg 62%
    13:00 +15°C° 0 mm 4 mps 759 mmHg 58%
    14:00 +17°C° 0 mm 4 mps 759 mmHg 55%
    15:00 +15°C° 0 mm 4 mps 759 mmHg 60%
    16:00 +14°C° 0 mm 4 mps 758 mmHg 66%
    17:00 +13°C° 0 mm 5 mps 758 mmHg 71%
    18:00 +13°C° 0 mm 5 mps 758 mmHg 76%
    19:00 +13°C° 0 mm 6 mps 758 mmHg 81%
    20:00 +13°C° 0 mm 6 mps 758 mmHg 86%
    21:00 +13°C° 0 mm 6 mps 757 mmHg 86%
    22:00 +12°C° 0 mm 7 mps 757 mmHg 86%
    23:00 +12°C° 0 mm 8 mps 757 mmHg 86%

    Tomorrow, 16 December, Saturday

    Time Temperature Precipitation Wind Pressure Humidity
    00:00 +12°C° 0 mm 8 mps 757 mmHg 87%
    01:00 +12°C° 0 mm 8 mps 757 mmHg 87%
    02:00 +12°C° 0 mm 9 mps 756 mmHg 87%
    03:00 +12°C° 0 mm 9 mps 756 mmHg 87%
    04:00 +12°C° 0 mm 9 mps 756 mmHg 86%
    05:00 +12°C° 0 mm 9 mps 755 mmHg 86%
    06:00 +12°C° 0 mm 9 mps 755 mmHg 85%
    07:00 +12°C° 0 mm 9 mps 755 mmHg 84%
    08:00 +12°C° 0 mm 9 mps 755 mmHg 83%
    09:00 +13°C° 0 mm 9 mps 755 mmHg 78%
    10:00 +14°C° 0 mm 10 mps 755 mmHg 73%
    11:00 +16°C° 0 mm 10 mps 755 mmHg 69%
    12:00 +17°C° 0 mm 10 mps 755 mmHg 66%
    13:00 +17°C° 0 mm 10 mps 754 mmHg 63%
    14:00 +18°C° 0 mm 10 mps 754 mmHg 60%
    15:00 +17°C° 0 mm 10 mps 754 mmHg 65%
    16:00 +16°C° 0 mm 10 mps 755 mmHg 70%
    17:00 +16°C° 0 mm 10 mps 755 mmHg 75%
    18:00 +15°C° 0.1 mm 9 mps 755 mmHg 77%
    19:00 +15°C° 0.1 mm 9 mps 755 mmHg 79%
    20:00 +15°C° 0.1 mm 9 mps 755 mmHg 80%
    21:00 +15°C° 0.5 mm 9 mps 755 mmHg 80%
    22:00 +13°C° 0.5 mm 8 mps 755 mmHg 81%
    23:00 +13°C° 0.5 mm 8 mps 755 mmHg 81%

    Day after tomorrow, 17 December, Sunday

    Time Temperature Precipitation Wind Pressure Humidity
    00:00 +13°C° 0.5 mm 8 mps 755 mmHg 83%
    01:00 +13°C° 0.5 mm 8 mps 754 mmHg 85%
    02:00 +14°C° 0.5 mm 7 mps 754 mmHg 87%
    03:00 +13°C° 1.2 mm 8 mps 754 mmHg 86%
    04:00 +13°C° 1.2 mm 8 mps 754 mmHg 86%
    05:00 +13°C° 1.2 mm 8 mps 754 mmHg 85%
    06:00 +13°C° 1 mm 8 mps 754 mmHg 86%
    07:00 +12°C° 1 mm 7 mps 755 mmHg 87%
    08:00 +11°C° 1 mm 6 mps 755 mmHg 87%
    09:00 +11°C° 1.5 mm 6 mps 755 mmHg 87%
    10:00 +10°C° 1.5 mm 6 mps 756 mmHg 87%
    11:00 +9°C° 1.5 mm 6 mps 756 mmHg 87%
    12:00 +9°C° 1.3 mm 6 mps 757 mmHg 86%
    13:00 +9°C° 1.3 mm 6 mps 757 mmHg 86%
    14:00 +8°C° 1.3 mm 5 mps 757 mmHg 85%
    15:00 +8°C° 0.4 mm 6 mps 757 mmHg 85%
    16:00 +8°C° 0.4 mm 6 mps 758 mmHg 86%
    17:00 +7°C° 0.4 mm 6 mps 758 mmHg 86%
    18:00 +7°C° 0.2 mm 5 mps 759 mmHg 86%
    19:00 +7°C° 0.2 mm 5 mps 760 mmHg 86%
    20:00 +7°C° 0.2 mm 4 mps 760 mmHg 86%
    21:00 +7°C° 0.1 mm 4 mps 761 mmHg 85%
    22:00 +7°C° 0.1 mm 4 mps 762 mmHg 84%
    23:00 +6°C° 0.1 mm 4 mps 762 mmHg 84%

    18 December, Monday

    Time Temperature Precipitation Wind Pressure Humidity
    00:00 +6°C° 0.1 mm 4 mps 763 mmHg 83%
    01:00 +6°C° 0.1 mm 4 mps 763 mmHg 81%
    02:00 +5°C° 0.1 mm 4 mps 763 mmHg 80%
    03:00 +5°C° 0.1 mm 5 mps 763 mmHg 80%
    04:00 +5°C° 0.1 mm 5 mps 764 mmHg 80%
    05:00 +3°C° 0.1 mm 5 mps 764 mmHg 80%
    06:00 +3°C° 0.1 mm 5 mps 764 mmHg 80%
    07:00 +3°C° 0.1 mm 5 mps 764 mmHg 81%
    08:00 +3°C° 0.1 mm 5 mps 765 mmHg 81%
    09:00 +3°C° 0.2 mm 5 mps 765 mmHg 81%
    10:00 +3°C° 0.2 mm 5 mps 765 mmHg 80%
    11:00 +3°C° 0.2 mm 6 mps 765 mmHg 79%
    12:00 +3°C° 0.6 mm 6 mps 765 mmHg 80%
    13:00 +3°C° 0.6 mm 6 mps 764 mmHg 80%
    14:00 +3°C° 0.6 mm 6 mps 764 mmHg 81%
    15:00 +3°C° 0.3 mm 6 mps 764 mmHg 81%
    16:00 +2°C° 0.3 mm 6 mps 765 mmHg 81%
    17:00 +2°C° 0.3 mm 6 mps 765 mmHg 81%
    18:00 +2°C° 0.1 mm 6 mps 765 mmHg 82%
    19:00 +1°C° 0.1 mm 6 mps 766 mmHg 82%
    20:00 +1°C° 0.1 mm 5 mps 767 mmHg 82%
    21:00 +1°C° 0 mm 5 mps 767 mmHg 83%
    22:00 +1°C° 0 mm 5 mps 768 mmHg 85%
    23:00 0°C° 0 mm 5 mps 768 mmHg 86%

    19 December, Tuesday

    Time Temperature Precipitation Wind Pressure Humidity
    00:00 0°C° 0 mm 5 mps 769 mmHg 87%
    01:00 0°C° 0 mm 5 mps 769 mmHg 87%
    02:00 -1°C° 0 mm 4 mps 769 mmHg 88%
    03:00 -1°C° 0 mm 4 mps 770 mmHg 87%
    04:00 -1°C° 0 mm 4 mps 770 mmHg 87%
    05:00 -2°C° 0 mm 4 mps 770 mmHg 87%
    06:00 -1°C° 0 mm 3 mps 771 mmHg 86%
    07:00 -1°C° 0 mm 3 mps 771 mmHg 85%
    08:00 -1°C° 0 mm 3 mps 772 mmHg 84%
    09:00 +1°C° 0 mm 3 mps 772 mmHg 78%
    10:00 +3°C° 0 mm 2 mps 772 mmHg 73%
    11:00 +4°C° 0 mm 2 mps 773 mmHg 67%
    12:00 +5°C° 0 mm 2 mps 772 mmHg 65%
    13:00 +5°C° 0 mm 2 mps 772 mmHg 63%
    14:00 +6°C° 0 mm 2 mps 772 mmHg 61%
    15:00 +5°C° 0 mm 2 mps 772 mmHg 65%
    16:00 +5°C° 0 mm 1 mps 772 mmHg 69%
    17:00 +4°C° 0 mm 1 mps 772 mmHg 73%
    18:00 +4°C° 0 mm 1 mps 773 mmHg 73%
    19:00 +3°C° 0 mm 1 mps 773 mmHg 74%
    20:00 +3°C° 0 mm 1 mps 773 mmHg 75%
    21:00 +3°C° 0 mm 1 mps 773 mmHg 75%
    22:00 +3°C° 0 mm 1 mps 773 mmHg 75%
    23:00 +3°C° 0 mm 1 mps 773 mmHg 74%

    20 December, Wednesday

    Time Temperature Precipitation Wind Pressure Humidity
    00:00 +3°C° 0 mm 1 mps 773 mmHg 74%
    01:00 +2°C° 0 mm 2 mps 772 mmHg 73%
    02:00 +1°C° 0 mm 2 mps 772 mmHg 73%
    03:00 +1°C° 0 mm 2 mps 772 mmHg 72%
    04:00 +1°C° 0 mm 2 mps 772 mmHg 72%
    05:00 +1°C° 0 mm 2 mps 772 mmHg 71%
    06:00 +1°C° 0 mm 2 mps 772 mmHg 70%
    07:00 +2°C° 0 mm 2 mps 772 mmHg 70%
    08:00 +2°C° 0 mm 2 mps 772 mmHg 69%
    09:00 +3°C° 0 mm 2 mps 772 mmHg 67%
    10:00 +4°C° 0 mm 2 mps 772 mmHg 64%
    11:00 +5°C° 0 mm 2 mps 772 mmHg 62%
    12:00 +5°C° 0 mm 2 mps 771 mmHg 63%
    13:00 +4°C° 0 mm 3 mps 771 mmHg 64%
    14:00 +5°C° 0 mm 3 mps 771 mmHg 66%
    15:00 +4°C° 0 mm 3 mps 771 mmHg 70%
    16:00 +3°C° 0 mm 3 mps 771 mmHg 75%
    17:00 +2°C° 0 mm 3 mps 771 mmHg 79%
    18:00 +1°C° 0.1 mm 4 mps 771 mmHg 82%
    19:00 0°C° 0.1 mm 4 mps 771 mmHg 84%
    20:00 0°C° 0.1 mm 5 mps 771 mmHg 86%
    21:00 0°C° 0.1 mm 5 mps 771 mmHg 87%
    22:00 -1°C° 0.1 mm 6 mps 771 mmHg 88%
    23:00 -2°C° 0.1 mm 6 mps 771 mmHg 88%
    Show more